Time,TemperatureF,DewpointF,PressureIn,WindDirection,WindDirectionDegrees,WindSpeedMPH,WindSpeedGustMPH,Humidity,HourlyPrecipIn,Conditions,Clouds,dailyrainin,SoftwareType,DateUTC
2013-03-25 00:12:00,30.4,30.0,29.85,WNW,299,3.0,9.0,99,0.00,,,0.00,weatherlink.com 1.10,2013-03-25 05:12:00,
2013-03-25 00:27:00,30.3,30.0,29.86,NW,314,5.0,9.0,99,0.00,,,0.00,weatherlink.com 1.10,2013-03-25 05:27:00,
2013-03-25 00:42:00,30.3,30.0,29.86,NW,315,5.0,7.0,99,0.00,,,0.00,weatherlink.com 1.10,2013-03-25 05:42:00,
2013-03-25 00:57:00,30.4,30.0,29.86,NW,326,3.0,5.0,99,0.00,,,0.00,weatherlink.com 1.10,2013-03-25 05:57:00,
2013-03-25 01:12:00,30.3,30.0,29.86,NW,308,3.0,7.0,99,0.00,,,0.00,weatherlink.com 1.10,2013-03-25 06:12:00,
2013-03-25 01:27:00,30.2,30.0,29.87,North,358,5.0,7.0,99,0.00,,,0.00,weatherlink.com 1.10,2013-03-25 06:27:00,
2013-03-25 01:42:00,30.1,30.0,29.87,NW,323,7.0,8.0,99,0.00,,,0.00,weatherlink.com 1.10,2013-03-25 06:42:00,
2013-03-25 01:57:00,30.1,30.0,29.87,NW,323,2.0,7.0,99,0.00,,,0.00,weatherlink.com 1.10,2013-03-25 06:57:00,
2013-03-25 02:12:00,30.0,30.0,29.87,NW,321,2.0,6.0,99,0.00,,,0.00,weatherlink.com 1.10,2013-03-25 07:12:00,
2013-03-25 02:27:00,30.0,30.0,29.87,NW,315,2.0,7.0,99,0.00,,,0.00,weatherlink.com 1.10,2013-03-25 07:27:00,
2013-03-25 02:42:00,30.0,30.0,29.87,WNW,303,2.0,6.0,99,0.00,,,0.00,weatherlink.com 1.10,2013-03-25 07:42:00,
2013-03-25 02:57:00,30.0,30.0,29.87,NW,321,2.0,5.0,99,0.00,,,0.00,weatherlink.com 1.10,2013-03-25 07:57:00,
2013-03-25 03:12:00,29.9,30.0,29.87,NW,315,1.0,4.0,99,0.00,,,0.00,weatherlink.com 1.10,2013-03-25 08:12:00,
2013-03-25 03:27:00,29.8,30.0,29.87,WNW,287,3.0,6.0,99,0.00,,,0.00,weatherlink.com 1.10,2013-03-25 08:27:00,
2013-03-25 03:42:00,29.8,30.0,29.86,NW,313,2.0,6.0,99,0.00,,,0.00,weatherlink.com 1.10,2013-03-25 08:42:00,
2013-03-25 03:57:00,29.8,30.0,29.86,NW,323,4.0,6.0,99,0.00,,,0.00,weatherlink.com 1.10,2013-03-25 08:57:00,
2013-03-25 04:12:00,29.8,30.0,29.87,WNW,293,0.0,5.0,99,0.00,,,0.00,weatherlink.com 1.10,2013-03-25 09:12:00,
2013-03-25 04:27:00,29.8,30.0,29.87,WNW,298,3.0,7.0,99,0.00,,,0.00,weatherlink.com 1.10,2013-03-25 09:27:00,
2013-03-25 04:43:00,29.8,29.0,29.87,NW,314,5.0,7.0,98,0.00,,,0.00,weatherlink.com 1.10,2013-03-25 09:43:00,
2013-03-25 04:58:00,29.7,29.0,29.87,WNW,302,3.0,6.0,98,0.00,,,0.00,weatherlink.com 1.10,2013-03-25 09:58:00,
2013-03-25 05:13:00,29.7,29.0,29.88,NW,317,5.0,7.0,98,0.00,,,0.00,weatherlink.com 1.10,2013-03-25 10:13:00,
2013-03-25 05:28:00,29.6,29.0,29.88,NNW,330,3.0,6.0,98,0.00,,,0.00,weatherlink.com 1.10,2013-03-25 10:28:00,
2013-03-25 05:43:00,29.5,29.0,29.89,WNW,291,1.0,7.0,98,0.00,,,0.00,weatherlink.com 1.10,2013-03-25 10:43:00,
2013-03-25 05:58:00,29.4,29.0,29.89,NNW,328,5.0,7.0,98,0.00,,,0.00,weatherlink.com 1.10,2013-03-25 10:58:00,
2013-03-25 06:13:00,29.4,29.0,29.89,NW,321,5.0,5.0,98,0.00,,,0.00,weatherlink.com 1.10,2013-03-25 11:13:00,
2013-03-25 06:28:00,29.3,29.0,29.90,NW,317,5.0,7.0,98,0.00,,,0.00,weatherlink.com 1.10,2013-03-25 11:28:00,
2013-03-25 06:43:00,29.2,29.0,29.90,NW,318,2.0,6.0,98,0.00,,,0.00,weatherlink.com 1.10,2013-03-25 11:43:00,
2013-03-25 06:58:00,29.2,29.0,29.91,NW,316,1.0,6.0,98,0.00,,,0.00,weatherlink.com 1.10,2013-03-25 11:58:00,
2013-03-25 07:13:00,29.2,29.0,29.91,NNE,20,3.0,9.0,97,0.00,,,0.00,weatherlink.com 1.10,2013-03-25 12:13:00,
2013-03-25 07:28:00,29.3,29.0,29.92,NW,323,5.0,6.0,97,0.00,,,0.00,weatherlink.com 1.10,2013-03-25 12:28:00,
2013-03-25 07:43:00,29.4,29.0,29.93,NW,321,4.0,6.0,97,0.00,,,0.00,weatherlink.com 1.10,2013-03-25 12:43:00,
2013-03-25 07:58:00,29.5,29.0,29.94,NW,315,5.0,6.0,97,0.00,,,0.00,weatherlink.com 1.10,2013-03-25 12:58:00,
2013-03-25 08:13:00,29.7,29.0,29.94,NNW,342,0.0,6.0,97,0.00,,,0.00,weatherlink.com 1.10,2013-03-25 13:13:00,
2013-03-25 08:28:00,29.7,29.0,29.95,NW,308,2.0,6.0,97,0.00,,,0.00,weatherlink.com 1.10,2013-03-25 13:28:00,
2013-03-25 08:43:00,29.6,29.0,29.95,NW,315,2.0,6.0,97,0.00,,,0.00,weatherlink.com 1.10,2013-03-25 13:43:00,
2013-03-25 08:58:00,29.6,29.0,29.96,WNW,302,2.0,4.0,97,0.00,,,0.00,weatherlink.com 1.10,2013-03-25 13:58:00,
2013-03-25 09:13:00,29.8,29.0,29.96,West,281,0.0,3.0,97,0.00,,,0.00,weatherlink.com 1.10,2013-03-25 14:13:00,
2013-03-25 09:28:00,30.2,30.0,29.97,NW,304,3.0,5.0,97,0.00,,,0.00,weatherlink.com 1.10,2013-03-25 14:28:00,
2013-03-25 09:43:00,30.6,30.0,29.98,NW,317,2.0,4.0,97,0.00,,,0.00,weatherlink.com 1.10,2013-03-25 14:43:00,
2013-03-25 09:58:00,30.8,30.0,29.98,NNW,327,0.0,3.0,97,0.01,,,0.01,weatherlink.com 1.10,2013-03-25 14:58:00,
2013-03-25 10:13:00,31.0,30.0,29.98,NW,321,5.0,9.0,97,0.01,,,0.01,weatherlink.com 1.10,2013-03-25 15:13:00,
2013-03-25 10:28:00,31.3,31.0,29.99,North,356,5.0,10.0,97,0.01,,,0.01,weatherlink.com 1.10,2013-03-25 15:28:00,
2013-03-25 10:43:00,31.2,31.0,29.99,NW,326,8.0,12.0,97,0.01,,,0.01,weatherlink.com 1.10,2013-03-25 15:43:00,
2013-03-25 10:58:00,31.5,31.0,30.00,NW,307,3.0,10.0,97,0.00,,,0.01,weatherlink.com 1.10,2013-03-25 15:58:00,
2013-03-25 11:13:00,31.5,31.0,30.00,NNW,335,4.0,13.0,97,0.00,,,0.01,weatherlink.com 1.10,2013-03-25 16:13:00,
2013-03-25 11:29:00,31.7,31.0,30.01,NNW,330,6.0,12.0,97,0.00,,,0.01,weatherlink.com 1.10,2013-03-25 16:29:00,
2013-03-25 11:44:00,32.1,31.0,30.01,WNW,285,3.0,11.0,97,0.00,,,0.01,weatherlink.com 1.10,2013-03-25 16:44:00,
2013-03-25 11:59:00,31.7,31.0,30.02,NNW,339,5.0,19.0,96,0.00,,,0.01,weatherlink.com 1.10,2013-03-25 16:59:00,
2013-03-25 12:14:00,32.0,31.0,30.02,NNW,339,9.0,13.0,96,0.00,,,0.01,weatherlink.com 1.10,2013-03-25 17:14:00,
2013-03-25 12:29:00,32.4,31.0,30.03,NW,317,2.0,13.0,96,0.00,,,0.01,weatherlink.com 1.10,2013-03-25 17:29:00,
2013-03-25 12:44:00,32.7,32.0,30.03,NNW,344,6.0,11.0,96,0.00,,,0.01,weatherlink.com 1.10,2013-03-25 17:44:00,
2013-03-25 12:59:00,33.1,32.0,30.03,NNW,337,10.0,12.0,94,0.00,,,0.01,weatherlink.com 1.10,2013-03-25 17:59:00,
2013-03-25 13:14:00,33.1,31.0,30.03,NW,315,9.0,12.0,92,0.00,,,0.01,weatherlink.com 1.10,2013-03-25 18:14:00,
2013-03-25 13:29:00,33.6,31.0,30.03,WNW,300,12.0,13.0,89,0.01,,,0.02,weatherlink.com 1.10,2013-03-25 18:29:00,
2013-03-25 13:44:00,33.8,30.0,30.03,NW,323,6.0,18.0,86,0.01,,,0.02,weatherlink.com 1.10,2013-03-25 18:44:00,
2013-03-25 13:59:00,34.2,31.0,30.04,NW,309,3.0,14.0,87,0.01,,,0.02,weatherlink.com 1.10,2013-03-25 18:59:00,
2013-03-25 14:14:00,34.8,30.0,30.03,NW,311,7.0,13.0,83,0.02,,,0.03,weatherlink.com 1.10,2013-03-25 19:14:00,
2013-03-25 14:29:00,34.2,30.0,30.04,NW,307,7.0,18.0,84,0.02,,,0.04,weatherlink.com 1.10,2013-03-25 19:29:00,
2013-03-25 14:44:00,34.1,29.0,30.04,NW,321,11.0,21.0,80,0.03,,,0.05,weatherlink.com 1.10,2013-03-25 19:44:00,
2013-03-25 14:59:00,34.3,29.0,30.05,NW,322,10.0,20.0,81,0.04,,,0.06,weatherlink.com 1.10,2013-03-25 19:59:00,
2013-03-25 15:14:00,34.0,29.0,30.05,NNW,328,13.0,18.0,81,0.04,,,0.07,weatherlink.com 1.10,2013-03-25 20:14:00,
2013-03-25 15:29:00,34.0,28.0,30.06,NNW,331,7.0,14.0,80,0.04,,,0.08,weatherlink.com 1.10,2013-03-25 20:29:00,
2013-03-25 15:44:00,33.3,28.0,30.07,WNW,298,5.0,16.0,82,0.03,,,0.08,weatherlink.com 1.10,2013-03-25 20:44:00,
2013-03-25 15:59:00,33.3,28.0,30.07,NW,326,6.0,14.0,81,0.02,,,0.08,weatherlink.com 1.10,2013-03-25 20:59:00,
2013-03-25 16:14:00,33.2,28.0,30.07,NW,313,7.0,16.0,80,0.02,,,0.09,weatherlink.com 1.10,2013-03-25 21:14:00,
2013-03-25 16:29:00,33.1,27.0,30.08,NNW,341,7.0,14.0,79,0.01,,,0.09,weatherlink.com 1.10,2013-03-25 21:29:00,
2013-03-25 16:44:00,33.2,27.0,30.09,NW,326,8.0,12.0,78,0.01,,,0.09,weatherlink.com 1.10,2013-03-25 21:44:00,
2013-03-25 16:59:00,33.2,27.0,30.09,NNW,344,6.0,14.0,78,0.01,,,0.10,weatherlink.com 1.10,2013-03-25 21:59:00,
2013-03-25 17:44:00,33.2,27.0,30.11,NNW,330,5.0,13.0,77,0.01,,,0.10,weatherlink.com 1.10,2013-03-25 22:44:00,
2013-03-25 17:59:00,33.2,27.0,30.12,NW,323,9.0,13.0,77,0.00,,,0.10,weatherlink.com 1.10,2013-03-25 22:59:00,
2013-03-25 18:14:00,33.1,27.0,30.12,NNW,333,4.0,8.0,78,0.00,,,0.10,weatherlink.com 1.10,2013-03-25 23:14:00,
2013-03-25 18:29:00,32.8,27.0,30.13,NW,305,4.0,15.0,79,0.00,,,0.10,weatherlink.com 1.10,2013-03-25 23:29:00,
2013-03-25 18:44:00,32.6,27.0,30.14,West,269,4.0,15.0,80,0.00,,,0.10,weatherlink.com 1.10,2013-03-25 23:44:00,
2013-03-25 18:59:00,32.4,27.0,30.14,NNW,344,4.0,10.0,80,0.00,,,0.10,weatherlink.com 1.10,2013-03-25 23:59:00,
2013-03-25 19:14:00,32.3,27.0,30.15,NNW,339,3.0,8.0,80,0.00,,,0.10,weatherlink.com 1.10,2013-03-26 00:14:00,
2013-03-25 19:30:00,32.1,27.0,30.16,WNW,300,1.0,7.0,80,0.00,,,0.10,weatherlink.com 1.10,2013-03-26 00:30:00,
2013-03-25 19:45:00,32.1,27.0,30.16,WNW,300,4.0,9.0,80,0.00,,,0.10,weatherlink.com 1.10,2013-03-26 00:45:00,
2013-03-25 20:15:00,32.1,26.0,30.17,NW,309,6.0,12.0,79,0.00,,,0.10,weatherlink.com 1.10,2013-03-26 01:15:00,
2013-03-25 20:30:00,32.1,26.0,30.17,NW,314,7.0,14.0,78,0.00,,,0.10,weatherlink.com 1.10,2013-03-26 01:30:00,
2013-03-25 20:45:00,32.2,26.0,30.18,NW,317,4.0,9.0,78,0.00,,,0.10,weatherlink.com 1.10,2013-03-26 01:45:00,
2013-03-25 21:00:00,32.0,26.0,30.18,NW,304,3.0,9.0,78,0.00,,,0.10,weatherlink.com 1.10,2013-03-26 02:00:00,
2013-03-25 21:15:00,31.9,26.0,30.19,WNW,295,3.0,8.0,79,0.00,,,0.10,weatherlink.com 1.10,2013-03-26 02:15:00,
2013-03-25 21:30:00,31.9,26.0,30.19,WNW,290,1.0,7.0,80,0.00,,,0.10,weatherlink.com 1.10,2013-03-26 02:30:00,
2013-03-25 21:45:00,31.8,26.0,30.19,NNW,338,3.0,8.0,79,0.00,,,0.10,weatherlink.com 1.10,2013-03-26 02:45:00,
2013-03-25 22:00:00,31.6,26.0,30.19,NNW,345,5.0,6.0,80,0.00,,,0.10,weatherlink.com 1.10,2013-03-26 03:00:00,
2013-03-25 22:15:00,31.3,26.0,30.20,WNW,298,1.0,6.0,80,0.00,,,0.10,weatherlink.com 1.10,2013-03-26 03:15:00,
2013-03-25 22:30:00,31.0,26.0,30.20,WNW,288,2.0,5.0,81,0.00,,,0.10,weatherlink.com 1.10,2013-03-26 03:30:00,
2013-03-25 22:45:00,30.4,26.0,30.20,NW,321,1.0,3.0,82,0.00,,,0.10,weatherlink.com 1.10,2013-03-26 03:45:00,
2013-03-25 23:00:00,30.0,25.0,30.21,NW,311,1.0,3.0,83,0.00,,,0.10,weatherlink.com 1.10,2013-03-26 04:00:00,
2013-03-25 23:15:00,30.2,26.0,30.21,West,267,1.0,3.0,83,0.00,,,0.10,weatherlink.com 1.10,2013-03-26 04:15:00,
2013-03-25 23:30:00,30.5,26.0,30.21,NW,318,2.0,4.0,83,0.00,,,0.10,weatherlink.com 1.10,2013-03-26 04:30:00,
2013-03-25 23:45:00,30.9,26.0,30.21,NNW,335,4.0,6.0,82,0.00,,,0.10,weatherlink.com 1.10,2013-03-26 04:45:00,